Regional Weather Roundup
Issued by NWS

Home | Current Version | Previous Version | Graphics & Text | Print | Product List | Glossary On
Versions: 1 2 3 4 5 6 7 8 9 10 11 12 13 14 15 16 17 18 19 20 21 22 23 24 25 26 27 28 29 30 31 32 33 34 35 36 37 38 39 40 41 42 43 44 45 46 47 48 49 50
566
ASUS43 KLSX 160707
RWRMO

WEATHER SUMMARY FOR MISSOURI
NATIONAL WEATHER SERVICE SPRINGFIELD MO
100 AM CST SAT DEC 16 2017

NOTE: "FAIR" INDICATES FEW OR NO CLOUDS BELOW 12,000 FEET WITH NO
       SIGNIFICANT WEATHER AND/OR OBSTRUCTIONS TO VISIBILITY.
       CURRENT SKY AND/OR WEATHER CONDITIONS ARE NOT AVAILABLE FOR
       CHILLICOTHE AND FARMINGTON.

MOZ001>031-035>038-043-044-053-054-160800-
...NORTHERN AND WESTERN MISSOURI...

CITY           SKY/WX    TMP DP  RH WIND       PRES   REMARKS
KANSAS CTY INT CLEAR     39  25  57 SW16      29.88F
KANSAS C DTWN  CLEAR     44  24  45 SW17G28   29.90F
LEE`S SUMMIT   CLEAR     40  24  53 SW21      29.91F
ST JOSEPH      CLEAR     40  27  59 SW15      29.85F
CHILLICOTHE      N/A     33  24  69 S8        29.89F WCI  26
KIRKSVILLE     CLEAR     38  29  70 SW13G24   29.88F WCI  30

$$
MOZ066>068-077>081-088>096-101>105-160800-
...SOUTHWEST MISSOURI...

CITY           SKY/WX    TMP DP  RH WIND       PRES   REMARKS
SPRINGFIELD    CLOUDY    32  25  75 S10       30.03F WCI  24
JOPLIN         CLEAR     40  25  55 S16       30.04F
BRANSON        PTCLDY    37  25  60 SW8       30.06F

$$
MOZ032>034-039>042-045>050-055>058-069>072-160800-
...CENTRAL MISSOURI...

CITY           SKY/WX    TMP DP  RH WIND       PRES   REMARKS
COLUMBIA       CLEAR     33  25  72 S10       29.97F WCI  25
JEFFERSON CITY CLEAR     35  24  64 VRB5      30.01S
ROLLA          CLEAR     33  25  72 SW13      30.02F WCI  24
SEDALIA        CLEAR     40  26  57 SW17G26   29.97F
WHITEMAN AFB   CLEAR     38  24  56 SW18      29.91F WCI  28
WARRENSBURG    CLEAR     36  25  64 S9        29.95S WCI  29
OSAGE BEACH    CLEAR     36  25  64 S10       30.02F WCI  28

$$
MOZ051-052-059>065-160800-
...EAST CENTRAL MISSOURI...

CITY           SKY/WX    TMP DP  RH WIND       PRES   REMARKS
ST LOUIS INTL  CLEAR     36  26  67 SW10      30.03F WCI  28
SPIRIT OF STL  CLEAR     35  25  66 SW7       30.02F WCI  29
ST CHARLES     CLEAR     30  23  75 S5        30.02F WCI  25

$$
MOZ072>076-082>087-097>100-106>115-160800-
...SOUTH CENTRAL AND SOUTHEAST MISSOURI...

CITY           SKY/WX    TMP DP  RH WIND       PRES   REMARKS
CAPE GIRARDEAU PTCLDY    32  26  78 SW5       30.12S WCI  27
FARMINGTON     CLOUDY    31  24  75 S7        30.07F WCI  24
POPLAR BLUFF   PTCLDY    32  28  85 S6        30.13S WCI  26
WEST PLAINS    CLOUDY    33  25  72 SW5       30.07F WCI  29

$$



USA.gov is the U.S. government's official web portal to all federal, state and local government web resources and services.